YAOGAN 15

导读

YAOGAN 15(遥感十五号)是中国自主研制的地球观测卫星,于2012年5月29日在太原卫星发射中心由长征四号丙运载火箭发射升空,顺利进入预定轨道。官方介绍其主要用于科学试验、国土资源普查、农作物估产和防灾减灾等领域,可获取高分辨率地表观测数据,服务国民经济发展。外界普遍认为遥感卫星系列具备军事观测能力,该卫星可能搭载雷达载荷,支持全天时全天候成像。作为中国对地观测体系的重要成员,它提升了我国遥感数据自主获取能力,持续为多领域提供数据支持。

基本信息
目录编号:
38354
目录名称:
YAOGAN 15
国际标识:
2012-029A
轨道中心:
EARTH
卫星名称:
YAOGAN 15
卫星全名:
--
卫星状态:
在轨 (已飞行5127 天)
发射日期:
2012-05-29 UTC
国别 :
中国 (CN)
星等 :
--
轨道信息
数据来源 国际轨道数据 AOE轨道数据
星历时间 2026-06-12T15:36:55+0800
12小时前
查看轨道信息
2026-06-13T00:00:00+0800
3小时前
查看轨道信息
半长轴 7569.037km 7569.034km
偏心率 0.0024908 0.0024848
轨道倾角 100.737° 100.736°
近地点辐角 303.649° 302.940°
升交点赤经 8.000° 8.356°
平近点角 56.224° 274.300°
近地点 1172.047km 1172.089km
远地点 1209.753km 1209.705km
周期 109.225分钟 109.225分钟
每日圈数 13.183837 13.183846
详细信息
使用方式:
暂无
2D轨道图
3D轨道图
轨道高度分析图
轨道倾角分析图
轨道综合分析图
查看轨道综合分析图